Location: Roland
(31.1349°N, 85.4372°W)
Time: 18:48:04
(UTC+00:00)

SR - Pass Details

Date: 20 April 2021
Orbit: 573 x 882 km, 66.7° (Epoch: 12 May)

Event Time Altitude Azimuth Distance (km) Brightness Sun altitude
Rises 23:36:14 0° 314° (NW) 3,385 ? 7.0°
Reaches altitude 10° 23:39:41 10° 293° (WNW) 2,394 ? 6.3°
Maximum altitude 23:42:54 16° 257° (WSW) 1,946 ? 5.6°
Drops below altitude 10° 23:46:00 10° 220° (SW) 2,268 ? 5.0°
Sets 23:49:09 0° 199° (SSW) 3,119 ? 4.3°
